Wetbulb
49.93 48.13 47.71 47.29 45.99 43.65 43.00 43.24 44.02 43.04 43.00 42.86 42.76 41.96 41.42 40.74 40.35 40.15 40.00 39.67 40.46 40.81
48.94 47.85 46.05 46.36 44.21 43.26 43.50 43.11 43.24 42.64 42.09 41.94 41.52 41.01 40.28 39.24 39.06 39.71 39.52 39.49 39.79 39.88
46.41 45.69 44.38 43.82 42.97 42.47 42.06 42.02 41.81 41.33 41.01 40.38 39.86 39.66 38.87 37.68 38.25 38.30 38.45 38.96 38.53 38.77
44.37 44.04 42.90 42.23 41.67 41.33 41.55 41.10 40.82 40.27 39.33 39.11 38.59 38.35 37.34 36.96 37.39 36.77 36.66 37.34 37.16 37.11
42.88 42.37 41.21 41.10 41.36 41.75 40.63 40.92 40.27 39.60 39.07 38.49 37.95 37.45 36.51 35.79 36.26 35.71 35.04 35.47 35.59 35.68
41.13 40.84 40.47 40.72 41.16 40.59 40.35 39.57 39.27 38.94 37.76 37.31 36.76 36.21 35.87 35.70 35.26 34.78 34.76 34.71 34.29 34.59
40.08 40.91 41.08 40.92 40.48 40.07 39.60 38.77 37.94 37.53 36.89 36.22 35.65 35.74 35.53 35.14 34.12 33.75 34.02 34.31 34.14 33.96
42.35 41.96 41.05 40.48 39.64 39.12 38.50 37.88 37.02 35.78 34.98 34.94 35.12 35.45 33.76 33.31 31.97 31.26 31.16 31.77 32.02 31.62
41.78 41.34 39.61 39.02 37.97 37.64 36.77 35.48 34.69 33.75 33.63 33.02 34.61 34.59 34.72 33.39 30.33 30.06 29.67 29.16 29.99 30.08
40.49 39.07 37.94 37.92 36.89 35.40 33.36 33.55 32.32 32.28 32.41 31.66 31.98 34.33 33.89 32.59 29.46 28.54 28.37 28.00 28.28 28.96
39.04 37.47 36.95 36.24 34.78 32.79 32.25 31.47 31.16 31.01 31.18 30.32 31.23 32.18 31.95 31.26 28.83 28.60 28.58 28.52 28.58 28.38
37.17 35.95 35.55 33.70 31.67 31.70 30.88 30.59 30.24 29.97 29.45 28.86 28.70 31.33 31.12 30.44 29.11 29.49 29.12 29.70 29.68 29.71
36.73 35.34 33.72 32.07 30.55 30.56 30.28 29.11 29.25 28.94 29.46 30.26 28.15 30.65 31.59 31.43 30.57 29.79 29.61 30.46 31.21 31.72
35.82 34.07 33.04 31.70 31.04 30.05 28.94 28.69 28.06 26.63 28.05 28.25 29.11 29.24 31.92 32.10 29.77 29.47 28.32 28.38 28.20 29.17
MSLP
1011.89 1012.56 1013.12 1013.70 1014.21 1014.71 1015.11 1015.21 1015.37 1015.84 1016.51 1016.87 1016.81 1016.91 1016.83 1016.64 1016.38 1016.21 1016.05 1015.81 1015.52 1015.10
1011.20 1012.00 1012.80 1013.50 1014.31 1015.00 1015.41 1015.77 1015.74 1016.28 1016.51 1016.73 1016.52 1016.45 1016.35 1016.11 1015.88 1015.70 1015.53 1015.26 1014.97 1014.64
1011.39 1012.15 1013.03 1013.80 1014.57 1015.41 1015.67 1015.97 1016.30 1016.41 1016.42 1016.32 1016.13 1015.99 1015.80 1015.58 1015.37 1015.18 1014.94 1014.64 1014.33 1014.01
1011.99 1012.74 1013.52 1014.21 1014.90 1015.59 1016.01 1016.30 1016.33 1016.06 1015.91 1015.77 1015.54 1015.36 1015.14 1014.98 1014.78 1014.57 1014.34 1014.09 1013.81 1013.41
1012.57 1013.17 1013.82 1014.58 1015.01 1015.52 1015.63 1015.88 1015.62 1015.57 1015.33 1015.09 1014.88 1014.72 1014.53 1014.33 1014.14 1013.92 1013.74 1013.48 1013.30 1012.93
1013.13 1013.61 1014.10 1014.54 1014.81 1015.33 1015.35 1015.26 1015.20 1015.01 1014.78 1014.55 1014.36 1014.18 1013.95 1013.73 1013.50 1013.29 1013.07 1012.85 1012.68 1012.43
1013.18 1013.58 1013.91 1014.22 1014.65 1014.95 1014.99 1014.87 1014.77 1014.61 1014.35 1014.12 1013.89 1013.65 1013.35 1013.09 1012.83 1012.62 1012.33 1012.16 1012.01 1011.85
1013.02 1013.45 1014.05 1014.12 1014.33 1014.55 1014.66 1014.54 1014.32 1014.12 1013.89 1013.58 1013.34 1013.00 1012.73 1012.62 1012.53 1012.41 1012.16 1012.03 1011.91 1011.73
1013.64 1013.43 1013.69 1014.02 1014.14 1014.28 1014.24 1014.08 1013.89 1013.65 1013.44 1013.12 1012.78 1012.48 1012.45 1012.43 1012.35 1012.21 1012.00 1011.68 1011.40 1011.12
1013.57 1013.44 1013.65 1013.85 1013.99 1014.02 1014.04 1013.72 1013.54 1013.28 1013.03 1012.74 1012.45 1012.28 1012.31 1012.27 1012.13 1011.86 1011.44 1011.00 1010.63 1010.23
1012.97 1013.19 1013.49 1013.71 1013.80 1013.77 1013.67 1013.61 1013.35 1013.01 1012.72 1012.54 1012.42 1012.33 1012.08 1011.68 1011.34 1010.92 1010.43 1009.93 1009.46 1009.04
1012.82 1013.16 1013.34 1013.52 1013.55 1013.60 1013.56 1013.35 1013.06 1012.80 1012.74 1012.59 1012.23 1011.84 1011.31 1010.89 1010.46 1009.81 1009.07 1008.44 1007.87 1007.44
1012.87 1013.11 1013.21 1013.35 1013.41 1013.32 1013.13 1012.98 1012.84 1012.70 1012.56 1012.29 1011.73 1011.12 1010.52 1010.05 1009.39 1008.53 1007.63 1007.09 1006.58 1006.12
1012.93 1013.02 1013.10 1013.22 1013.16 1013.01 1012.94 1012.83 1012.61 1012.41 1012.28 1011.80 1011.22 1010.50 1009.84 1009.22 1008.71 1007.96 1007.08 1006.15 1005.46 1004.88
Wind_Speed
8 5 4 3 2 3 2 1 4 3 2 4 4 5 6 6 6 7 7 10 9 9
6 6 4 3 6 3 1 2 4 5 4 6 6 6 6 5 7 8 9 10 10 10
6 7 6 6 5 2 3 3 3 4 6 6 7 7 7 6 7 9 8 9 11 11
5 6 5 4 3 4 4 5 6 6 6 8 9 9 8 9 10 12 12 12 13 15
5 5 5 5 3 4 5 7 6 8 10 10 10 10 10 11 12 12 13 13 13 14
3 3 3 1 2 5 8 6 8 9 10 11 10 11 11 12 12 13 13 13 14 14
5 5 3 3 3 5 6 7 8 9 10 10 11 12 12 13 13 13 12 10 11 11
4 4 7 3 5 5 6 8 9 10 10 10 10 9 10 8 9 10 12 12 12 13
8 5 2 4 4 6 8 7 9 8 9 10 9 11 12 8 8 10 12 13 14 15
8 5 3 4 6 6 7 7 7 8 9 10 10 12 16 17 10 12 13 15 15 15
4 2 4 5 6 6 6 7 8 8 8 9 9 19 21 22 15 13 15 16 17 17
2 4 5 6 6 6 7 8 7 6 8 11 12 19 23 21 14 14 16 16 17 17
4 5 6 5 6 5 6 7 5 10 8 12 13 19 23 21 12 14 9 12 11 18
5 6 6 6 6 6 7 7 8 4 7 11 12 13 21 22 13 11 12 11 11 10
Wind_Direction
205 193 199 209 131 65 70 148 79 66 263 287 300 282 272 270 269 270 271 273 269 273
189 169 134 124 109 111 0 307 47 2 315 279 262 265 267 266 267 262 267 268 270 275
98 99 84 73 78 66 21 5 269 309 261 271 270 267 265 268 269 268 268 270 268 268
93 108 102 107 118 47 339 324 281 275 280 276 275 274 274 270 269 268 270 268 268 269
102 118 140 161 170 192 234 260 272 274 274 278 279 279 275 275 276 275 275 273 277 279
152 189 199 336 310 262 255 287 278 284 285 285 284 282 279 277 277 275 273 274 274 274
186 217 266 234 320 269 270 278 291 288 289 287 284 281 282 284 280 276 275 279 283 288
28 346 262 231 249 282 289 284 281 286 283 285 286 281 283 303 303 297 291 287 287 286
286 285 283 267 298 282 274 290 285 286 292 289 291 303 309 316 311 300 291 284 275 270
275 256 280 300 283 290 288 286 292 296 296 299 303 311 328 319 304 292 281 276 273 269
236 298 310 289 293 289 298 302 302 298 305 315 319 316 307 299 293 284 275 267 263 259
26 306 297 290 300 311 310 297 294 319 321 311 300 297 295 294 287 276 266 263 259 256
331 303 298 319 313 293 291 305 329 303 300 295 297 295 295 293 286 286 277 281 269 265
309 318 323 321 306 314 315 311 292 302 304 302 296 296 302 309 312 301 296 287 280 271